Regional Weather Roundup
Issued by NWS

Home | Current Version | Previous Version | Text Only | Print | Product List | Glossary On
Versions: 1 2 3 4 5 6 7 8 9 10 11 12 13 14 15 16 17 18 19 20 21 22 23 24 25 26 27 28 29 30 31 32 33 34 35 36 37 38 39 40 41 42 43 44 45 46 47 48 49 50
000
ASUS45 KPSR 290910
RWRAZ

ARIZONA HOURLY REGIONAL WEATHER ROUNDUP
NATIONAL WEATHER SERVICE PHOENIX AZ
200 AM MST FRI MAY 29 2015

NOTE: FAIR INDICATES FEW OR NO CLOUDS BELOW 12,000 FEET WITH NO
SIGNIFICANT WEATHER AND/OR OBSTRUCTIONS TO VISIBILITY.

AZZ001>003-036-291000-
NORTHWEST ARIZONA

CITY           SKY/WX    TMP DP  RH WIND       PRES   REMARKS
BULLHEAD CITY  PTCLDY    81  25  12 SE7       29.82F
KINGMAN        MOCLDY    67  21  17 CALM      30.00R
$$

AZZ004>008-015-016-018-291000-
NORTH CENTRAL ARIZONA

CITY           SKY/WX    TMP DP  RH WIND       PRES   REMARKS
GRAND CANYON   MOCLDY    46  38  73 CALM      30.21S
WILLIAMS       CLOUDY    48  27  43 S8        30.26F
PRESCOTT       CLOUDY    63  25  23 S6        30.11S
FLAGSTAFF      MOCLDY    46  26  45 CALM      30.23R
PAYSON         MOCLDY    57  28  33 N5        30.12F
PAGE           MOCLDY    70  40  33 NW3       30.07S
$$

AZZ009>014-017-291000-
NORTHEAST ARIZONA

CITY           SKY/WX    TMP DP  RH WIND       PRES   REMARKS
WINSLOW        PTCLDY    59  22  24 CALM      30.10R
SAINT JOHNS    PTCLDY    56  23  27 CALM      30.12S
WINDOW ROCK    CLEAR     46  30  53 CALM      30.20S
SHOW LOW       PTCLDY    50  25  37 CALM      30.19R
$$

AZZ023-291000-
GREATER PHOENIX AREA

CITY           SKY/WX    TMP DP  RH WIND       PRES   REMARKS
PHOENIX        PTCLDY    78  35  21 SW6       29.84S
BUCKEYE          N/A     66  34  30 S3        29.86S
LUKE AFB       CLEAR     75  35  23 NE3       29.84S
DEER VALLEY    PTCLDY    70  32  24 CALM      29.86F
SCOTTSDALE     PTCLDY    76  35  22 CALM      29.88F
MESA-GATEWAY   CLEAR     68  41  37 SE5       29.89S
$$

AZZ027-028-291000-
SOUTHWEST MARICOPA COUNTY AND PINAL COUNTY

CITY           SKY/WX    TMP DP  RH WIND       PRES   REMARKS
CASA GRANDE    CLEAR     72  34  25 CALM      29.88R
GILA BEND      FAIR      73  37  27 E6        29.84F
$$

AZZ503-504-507>509-291000-
SOUTHEAST ARIZONA

CITY           SKY/WX    TMP DP  RH WIND       PRES   REMARKS
TUCSON         CLEAR     72  35  25 SE5       29.98S
DAVIS-MONTHAN  CLEAR     69  36  29 S6        29.96F
NOGALES        CLEAR     62  34  35 E7        30.05S
SIERRA VISTA   CLEAR     67  27  22 W9        30.10F
DOUGLAS        CLEAR     61  24  24 NW3       30.06F
SAFFORD        PTCLDY    67  23  19 SE3       29.96R
$$

AZZ020-021-025-026-031-291000-
SOUTHWEST ARIZONA

CITY           SKY/WX    TMP DP  RH WIND       PRES   REMARKS
YUMA           CLEAR     74  42  31 SE6       29.81F
$$

CAZ031-033-041-043-047-048-061-291000-
SOUTHERN CALIFORNIA

CITY           SKY/WX    TMP DP  RH WIND       PRES   REMARKS
DOWNTOWN L.A.  CLEAR     59  55  87 CALM      29.95S
L.A. AIRPORT   CLOUDY    59  56  89 W5        29.96S
SAN DIEGO      CLOUDY    62  55  77 SE6       29.97F
BURBANK        CLEAR     60  54  80 S3        29.94S
ONTARIO        CLEAR     59  54  83 W5        29.95R
RIVERSIDE      CLEAR     60  55  83 W3        29.95S
PALM SPRINGS   CLEAR     77  53  43 CALM      29.84S
EL CENTRO NAS  CLEAR     69  41  36 NE5       29.79F
IMPERIAL       CLEAR     72  52  49 E3        29.77S
BLYTHE         CLEAR     79  35  20 CALM      29.81S
NEEDLES        CLEAR     85  20   9 SW3       29.83R
$$

NVZ020-UTZ003-291000-
SOUTHERN NEVADA-UTAH

CITY           SKY/WX    TMP DP  RH WIND       PRES   REMARKS
LAS VEGAS      PTCLDY    83  27  13 S10       29.84R
SALT LAKE CITY CLEAR     55  44  66 SE6       30.15S
$$

NMZ009-TXZ055-291000-
NEW MEXICO-WEST TEXAS

CITY           SKY/WX    TMP DP  RH WIND       PRES   REMARKS
ALBUQUERQUE    CLEAR     64  32  30 N10       30.09S
EL PASO        CLEAR     80  18  10 W12       29.97S
$$


........................KEY........................
SKY/WX - SKY CONDITION/WEATHER
TMP    - TEMPERATURE IN FAHRENHEIT
DP     - DEW POINT IN FAHRENHEIT
RH     - RELATIVE HUMIDITY IN PERCENT
WIND   - DIRECTION AND SPEED IN MILES PER HOUR (MPH)
VRB    - VARIABLE WIND DIRECTION
PRES   - MEAN SEA LEVEL PRESSURE IN INCHES OF MERCURY
         F - FALLING PRESSURE   R - RISING PRESSURE
         S - STEADY PRESSURE
VSB    - VISIBILITY IN MILES
HX     - HEAT INDEX IN FAHRENHEIT
WCI    - WIND CHILL INDEX IN FAHRENHEIT
TC     - TEMPERATURE IN CELSIUS WHICH IS ALSO KNOWN AS
         TEMPERATURE IN CENTIGRADE
AFB    - AIR FORCE BASE
         LUKE AFB IS LUKE AIR FORCE BASE
         DAVIS-MONTHAN IS DAVIS-MONTHAN AIR FORCE BASE
NAS    - NAVAL AIR STATION
         EL CENTRO NAS IS EL CENTRO NAVAL AIR STATION
N/A    - NOT AVAILABLE



USA.gov is the U.S. government's official web portal to all federal, state and local government web resources and services.